Location: Unspecified
(0.0000°N, 0.0000°E)
Time: 15:07:14
(UTC+00:00)

CUTE-I - Pass Details

Date: 12 December 2019
Orbit: 811 x 824 km, 98.7° (Epoch: 14 August)

Event Time Altitude Azimuth Distance (km) Brightness Sun altitude
Rises 19:09:34 0° 204° (SSW) 3,346 ? -17.4°
Reaches altitude 10° 19:13:19 10° 231° (SW) 2,414 ? -18.2°
Maximum altitude 19:15:36 13° 257° (WSW) 2,218 ? -18.8°
Drops below altitude 10° 19:17:53 10° 282° (WNW) 2,413 ? -19.3°
Sets 19:21:40 0° 310° (NW) 3,344 ? -20.1°
